START_TIME,STEP,MOV.,M34,t_acc.,L5,t_acc.,L18,t_acc.,L14,t_acc.
1981-08-28 18:00:25.390 ,1,1,0.,12.0,0.,12.0,0.,12.0,0.,12.0
1981-08-28 18:00:37.390 ,1,1,0.,12.0,0.,12.0,0.,12.0,0.,12.0
1981-08-28 18:00:49.390 ,2,1,0.,12.0,0.,12.0,0.,12.0,0.,12.0
1981-08-28 18:01:01.390 ,2,1,0.,12.0,0.,12.0,0.,12.0,0.,12.0
1981-08-28 18:01:13.390 ,3,1,0.,12.0,0.,12.0,0.,12.0,0.,12.0
1981-08-28 18:01:25.390 ,3,1,0.,12.0,0.,12.0,0.,12.0,0.,12.0
1981-08-28 18:01:37.390 ,4,1,0.,12.0,0.,12.0,0.,12.0,0.,12.0
1981-08-28 18:01:49.390 ,4,1,0.,12.0,0.,12.0,0.,12.0,0.,12.0
1981-08-28 18:02:01.390 ,5,1,0.,12.0,0.,12.0,0.,12.0,0.,12.0
1981-08-28 18:02:13.390 ,5,1,0.,12.0,0.,12.0,0.,12.0,0.,12.0
1981-08-28 18:02:25.390 ,6,1,0.,12.0,0.,12.0,0.,12.0,0.,12.0
1981-08-28 18:02:37.390 ,6,1,0.,12.0,0.,12.0,0.,12.0,0.,12.0
1981-08-28 18:02:49.390 ,7,1,0.,12.0,0.,12.0,0.,12.0,0.,12.0
1981-08-28 18:03:01.390 ,7,1,0.,12.0,0.,12.0,0.,12.0,0.,12.0
1981-08-28 18:03:13.390 ,7,1,0.,12.0,0.,12.0,0.,12.0,0.,12.0
1981-08-28 18:03:25.390 ,7,1,0.,12.0,0.,12.0,0.,12.0,0.,12.0
1981-08-28 18:03:37.390 ,7,0,0.,12.0,0.,12.0,0.,12.0,0.,12.0
1981-08-28 18:03:49.390 ,7,0,0.,12.0,0.,12.0,0.,12.0,0.,12.0
1981-08-28 18:04:01.390 ,6,1,0.,12.0,0.,12.0,0.,12.0,0.,12.0
1981-08-28 18:04:13.390 ,6,1,0.,12.0,0.,12.0,0.,12.0,0.,12.0
1981-08-28 18:04:25.390 ,6,0,0.,12.0,0.,12.0,0.,12.0,0.,12.0
1981-08-28 18:04:37.390 ,6,0,0.,12.0,0.,12.0,0.,12.0,0.,12.0
1981-08-28 18:04:49.390 ,5,1,0.,12.0,0.,12.0,0.,12.0,0.,12.0
1981-08-28 18:05:01.390 ,5,1,0.,12.0,0.,12.0,0.,12.0,0.,12.0
1981-08-28 18:05:13.390 ,5,0,0.,12.0,0.,12.0,0.,12.0,0.,12.0
1981-08-28 18:05:25.390 ,5,0,0.,12.0,0.,12.0,0.,12.0,0.,12.0
1981-08-28 18:05:37.390 ,4,1,0.,12.0,0.,12.0,0.,12.0,0.,12.0
1981-08-28 18:05:49.390 ,4,1,0.,12.0,0.,12.0,0.,12.0,0.,12.0
1981-08-28 18:06:01.390 ,4,0,0.,12.0,0.,12.0,0.,12.0,0.,12.0
1981-08-28 18:06:13.390 ,4,0,0.,12.0,0.,12.0,0.,12.0,0.,12.0
1981-08-28 18:06:25.390 ,3,1,0.,12.0,0.,12.0,0.,12.0,0.,12.0
1981-08-28 18:06:37.390 ,3,1,0.,12.0,0.,12.0,0.,12.0,0.,12.0
1981-08-28 18:06:49.390 ,3,0,0.,12.0,0.,12.0,0.,12.0,0.,12.0
1981-08-28 18:07:01.390 ,3,0,0.,12.0,0.,12.0,0.,12.0,0.,12.0
1981-08-28 18:07:13.390 ,2,1,0.,12.0,0.,12.0,0.,12.0,0.,12.0
1981-08-28 18:07:25.390 ,2,1,0.,12.0,0.,12.0,0.,12.0,0.,12.0
1981-08-28 18:07:37.390 ,2,0,0.,12.0,0.,12.0,0.,12.0,0.,12.0
1981-08-28 18:07:49.390 ,2,0,0.,12.0,0.,12.0,0.,12.0,0.,12.0
1981-08-28 18:08:01.390 ,1,1,0.,12.0,0.,12.0,0.,12.0,0.,12.0
1981-08-28 18:08:13.390 ,1,1,0.,12.0,0.,12.0,0.,12.0,0.,12.0
1981-08-28 18:08:25.390 ,1,0,0.,12.0,0.,12.0,0.,12.0,0.,12.0
1981-08-28 18:08:37.390 ,1,0,0.,12.0,0.,12.0,0.,12.0,0.,12.0
1981-08-28 18:08:49.390 ,0,1,0.,12.0,0.,12.0,0.,12.0,0.,12.0
1981-08-28 18:09:01.390 ,0,1,0.,12.0,0.,12.0,0.,12.0,0.,12.0
1981-08-28 18:09:13.390 ,0,0,0.,12.0,0.,12.0,0.,12.0,0.,12.0
1981-08-28 18:09:25.390 ,0,0,0.,12.0,0.,12.0,0.,12.0,0.,12.0
1981-08-28 18:09:37.390 ,0,1,0.,12.0,0.,12.0,0.,12.0,0.,12.0
1981-08-28 18:09:49.390 ,0,1,0.,12.0,0.,12.0,0.,12.0,0.,12.0
1981-08-28 18:10:01.390 ,0,0,0.,12.0,0.,12.0,0.,12.0,0.,12.0
1981-08-28 18:10:13.390 ,0,0,0.,12.0,0.,12.0,0.,12.0,0.,12.0
1981-08-28 18:10:25.390 ,1,1,0.,12.0,0.,12.0,0.,12.0,0.,12.0
1981-08-28 18:10:37.390 ,1,1,0.,12.0,0.,12.0,0.,12.0,0.,12.0
1981-08-28 18:10:49.390 ,1,0,0.,12.0,0.,12.0,0.,12.0,0.,12.0
1981-08-28 18:11:01.390 ,1,0,0.,12.0,0.,12.0,0.,12.0,0.,12.0
1981-08-28 18:11:13.390 ,2,1,0.,12.0,0.,12.0,0.,12.0,0.,12.0
1981-08-28 18:11:25.390 ,2,1,0.,12.0,0.,12.0,0.,12.0,0.,12.0
1981-08-28 18:11:37.390 ,2,0,0.,12.0,0.,12.0,0.,12.0,0.,12.0
1981-08-28 18:11:49.390 ,2,0,0.,12.0,0.,12.0,0.,12.0,0.,12.0
1981-08-28 18:12:01.390 ,3,1,0.,12.0,0.,12.0,0.,12.0,0.,12.0
1981-08-28 18:12:13.390 ,3,1,0.,12.0,0.,12.0,0.,12.0,0.,12.0
1981-08-28 18:12:25.390 ,3,0,0.,12.0,0.,12.0,0.,12.0,0.,12.0
1981-08-28 18:12:37.390 ,3,0,0.,12.0,0.,12.0,0.,12.0,0.,12.0
1981-08-28 18:12:49.390 ,4,1,0.,12.0,0.,12.0,0.,12.0,0.,12.0
1981-08-28 18:13:01.390 ,4,1,0.,12.0,0.,12.0,0.,12.0,0.,12.0
1981-08-28 18:13:13.390 ,4,0,0.,12.0,0.,12.0,0.,12.0,0.,12.0
1981-08-28 18:13:25.390 ,4,0,0.,12.0,0.,12.0,0.,12.0,0.,12.0
1981-08-28 18:13:37.390 ,5,1,0.,12.0,0.,12.0,0.,12.0,0.,12.0
1981-08-28 18:13:49.390 ,5,1,0.,12.0,0.,12.0,0.,12.0,0.,12.0
1981-08-28 18:14:01.390 ,5,0,0.,12.0,0.,12.0,0.,12.0,0.,12.0
1981-08-28 18:14:13.390 ,5,0,0.,12.0,0.,12.0,0.,12.0,0.,12.0
1981-08-28 18:14:25.390 ,6,1,0.,12.0,0.,12.0,0.,12.0,0.,12.0
1981-08-28 18:14:37.390 ,6,1,0.,12.0,0.,12.0,0.,12.0,0.,12.0
1981-08-28 18:14:49.390 ,6,0,0.,12.0,0.,12.0,0.,12.0,0.,12.0
1981-08-28 18:15:01.390 ,6,0,0.,12.0,0.,12.0,0.,12.0,0.,12.0
1981-08-28 18:15:13.390 ,7,1,0.,12.0,0.,12.0,0.,12.0,0.,12.0
1981-08-28 18:15:25.390 ,7,1,0.,12.0,0.,12.0,0.,12.0,0.,12.0
1981-08-28 18:15:37.390 ,7,0,0.,12.0,0.,12.0,0.,12.0,0.,12.0
1981-08-28 18:15:49.390 ,7,0,0.,12.0,0.,12.0,1.,12.0,0.,12.0
1981-08-28 18:16:01.390 ,7,1,0.,12.0,0.,12.0,0.,12.0,0.,12.0
1981-08-28 18:16:13.390 ,7,1,0.,12.0,0.,12.0,0.,12.0,0.,12.0
1981-08-28 18:16:25.390 ,6,1,0.,12.0,0.,12.0,0.,12.0,0.,12.0
1981-08-28 18:16:37.390 ,6,1,0.,12.0,0.,12.0,0.,12.0,1.,12.0
1981-08-28 18:16:49.390 ,5,1,0.,12.0,0.,12.0,0.,12.0,0.,12.0
1981-08-28 18:17:01.390 ,5,1,0.,12.0,0.,12.0,0.,12.0,0.,12.0
1981-08-28 18:17:13.390 ,4,1,0.,12.0,0.,12.0,0.,12.0,0.,12.0
1981-08-28 18:17:25.390 ,4,1,0.,12.0,0.,12.0,0.,12.0,0.,12.0
1981-08-28 18:17:37.390 ,3,1,0.,12.0,0.,12.0,0.,12.0,0.,12.0
1981-08-28 18:17:49.390 ,3,1,0.,12.0,0.,12.0,0.,12.0,0.,12.0
1981-08-28 18:18:01.390 ,2,1,0.,12.0,0.,12.0,0.,12.0,0.,12.0
1981-08-28 18:18:13.390 ,2,1,0.,12.0,0.,12.0,0.,12.0,0.,12.0
1981-08-28 18:18:25.390 ,1,1,0.,12.0,0.,12.0,0.,12.0,0.,12.0
1981-08-28 18:18:37.390 ,1,1,0.,12.0,0.,12.0,0.,12.0,0.,12.0
1981-08-28 18:18:49.390 ,0,1,0.,12.0,0.,12.0,0.,12.0,0.,12.0
1981-08-28 18:19:01.390 ,0,1,0.,12.0,0.,12.0,0.,12.0,0.,12.0
1981-08-28 18:19:13.390 ,0,1,0.,12.0,0.,12.0,0.,12.0,0.,12.0
1981-08-28 18:19:25.390 ,0,1,0.,12.0,0.,12.0,0.,12.0,0.,12.0
1981-08-28 18:19:37.390 ,1,1,0.,12.0,0.,12.0,0.,12.0,0.,12.0
1981-08-28 18:19:49.390 ,1,1,0.,12.0,0.,12.0,0.,12.0,0.,12.0
1981-08-28 18:20:01.390 ,2,1,0.,12.0,0.,12.0,0.,12.0,0.,12.0
1981-08-28 18:20:13.390 ,2,1,0.,12.0,0.,12.0,0.,12.0,0.,12.0
1981-08-28 18:20:25.390 ,3,1,0.,12.0,0.,12.0,0.,12.0,0.,12.0
1981-08-28 18:20:37.390 ,3,1,0.,12.0,0.,12.0,0.,12.0,0.,12.0
1981-08-28 18:20:49.390 ,4,1,0.,12.0,0.,12.0,0.,12.0,0.,12.0
1981-08-28 18:21:01.390 ,4,1,0.,12.0,0.,12.0,0.,12.0,0.,12.0
1981-08-28 18:21:13.390 ,5,1,0.,12.0,0.,12.0,0.,12.0,0.,12.0
1981-08-28 18:21:25.390 ,5,1,0.,12.0,0.,12.0,0.,12.0,0.,12.0
1981-08-28 18:21:37.390 ,6,1,0.,12.0,0.,12.0,0.,12.0,0.,12.0
1981-08-28 18:21:49.390 ,6,1,0.,12.0,0.,12.0,0.,12.0,0.,12.0
1981-08-28 18:22:01.390 ,7,1,0.,12.0,0.,12.0,0.,12.0,0.,12.0
1981-08-28 18:22:13.390 ,7,1,0.,12.0,0.,12.0,0.,12.0,0.,12.0
1981-08-28 18:22:25.390 ,7,1,0.,12.0,0.,12.0,0.,12.0,0.,12.0
1981-08-28 18:22:37.390 ,7,1,0.,12.0,0.,12.0,0.,12.0,0.,12.0
1981-08-28 18:22:49.390 ,7,0,0.,12.0,0.,12.0,0.,12.0,0.,12.0
1981-08-28 18:23:01.390 ,7,0,0.,12.0,0.,12.0,0.,12.0,0.,12.0
1981-08-28 18:23:13.390 ,6,1,0.,12.0,0.,12.0,0.,12.0,0.,12.0
1981-08-28 18:23:25.390 ,6,1,0.,12.0,0.,12.0,0.,12.0,0.,12.0
1981-08-28 18:23:37.390 ,6,0,0.,12.0,0.,12.0,0.,12.0,0.,12.0
1981-08-28 18:23:49.390 ,6,0,0.,12.0,0.,12.0,0.,12.0,0.,12.0
1981-08-28 18:24:01.390 ,5,1,0.,12.0,0.,12.0,0.,12.0,0.,12.0
1981-08-28 18:24:13.390 ,5,1,0.,12.0,0.,12.0,0.,12.0,0.,12.0
1981-08-28 18:24:25.390 ,5,0,0.,12.0,0.,12.0,0.,12.0,0.,12.0
1981-08-28 18:24:37.390 ,5,0,0.,12.0,0.,12.0,0.,12.0,0.,12.0
1981-08-28 18:24:49.390 ,4,1,0.,12.0,0.,12.0,0.,12.0,0.,12.0
1981-08-28 18:25:01.390 ,4,1,0.,12.0,0.,12.0,0.,12.0,0.,12.0
1981-08-28 18:25:13.390 ,4,0,0.,12.0,0.,12.0,0.,12.0,0.,12.0
1981-08-28 18:25:25.390 ,4,0,0.,12.0,0.,12.0,0.,12.0,0.,12.0
1981-08-28 18:25:37.390 ,3,1,0.,12.0,0.,12.0,0.,12.0,0.,12.0
1981-08-28 18:25:49.390 ,3,1,0.,12.0,0.,12.0,0.,12.0,0.,12.0
1981-08-28 18:26:01.390 ,3,0,0.,12.0,0.,12.0,0.,12.0,0.,12.0
1981-08-28 18:26:13.390 ,3,0,0.,12.0,0.,12.0,0.,12.0,0.,12.0
1981-08-28 18:26:25.390 ,2,1,0.,12.0,0.,12.0,0.,12.0,0.,12.0
1981-08-28 18:26:37.390 ,2,1,0.,12.0,0.,12.0,0.,12.0,0.,12.0
1981-08-28 18:26:49.390 ,2,0,0.,12.0,0.,12.0,0.,12.0,0.,12.0
1981-08-28 18:27:01.390 ,2,0,0.,12.0,0.,12.0,0.,12.0,0.,12.0
1981-08-28 18:27:13.390 ,1,1,0.,12.0,0.,12.0,0.,12.0,0.,12.0
1981-08-28 18:27:25.390 ,1,1,0.,12.0,0.,12.0,0.,12.0,0.,12.0
1981-08-28 18:27:37.390 ,1,0,0.,12.0,0.,12.0,0.,12.0,0.,12.0
1981-08-28 18:27:49.390 ,1,0,0.,12.0,0.,12.0,0.,12.0,0.,12.0
1981-08-28 18:28:01.390 ,0,1,0.,12.0,0.,12.0,0.,12.0,0.,12.0
1981-08-28 18:28:13.390 ,0,1,0.,12.0,0.,12.0,0.,12.0,1.,12.0
1981-08-28 18:28:25.390 ,0,0,0.,12.0,0.,12.0,0.,12.0,0.,12.0
1981-08-28 18:28:37.390 ,0,0,0.,12.0,0.,12.0,0.,12.0,0.,12.0
1981-08-28 18:28:49.390 ,0,1,0.,12.0,0.,12.0,0.,12.0,0.,12.0
1981-08-28 18:29:01.390 ,0,1,0.,12.0,0.,12.0,0.,12.0,0.,12.0
1981-08-28 18:29:13.390 ,0,0,0.,12.0,0.,12.0,0.,12.0,0.,12.0
1981-08-28 18:29:25.390 ,0,0,0.,12.0,0.,12.0,0.,12.0,0.,12.0
1981-08-28 18:29:37.390 ,1,1,0.,12.0,0.,12.0,0.,12.0,0.,12.0
1981-08-28 18:29:49.390 ,1,1,0.,12.0,0.,12.0,0.,12.0,0.,12.0
1981-08-28 18:30:01.390 ,1,0,0.,12.0,0.,12.0,0.,12.0,0.,12.0
1981-08-28 18:30:13.390 ,1,0,0.,12.0,0.,12.0,0.,12.0,0.,12.0
1981-08-28 18:30:25.390 ,2,1,0.,12.0,0.,12.0,0.,12.0,0.,12.0
1981-08-28 18:30:37.390 ,2,1,0.,12.0,0.,12.0,0.,12.0,0.,12.0
1981-08-28 18:30:49.390 ,2,0,0.,12.0,0.,12.0,0.,12.0,0.,12.0
1981-08-28 18:31:01.390 ,2,0,0.,12.0,0.,12.0,0.,12.0,0.,12.0
1981-08-28 18:31:13.390 ,3,1,0.,12.0,0.,12.0,0.,12.0,0.,12.0
1981-08-28 18:31:25.390 ,3,1,0.,12.0,0.,12.0,0.,12.0,0.,12.0
1981-08-28 18:31:37.390 ,3,0,0.,12.0,0.,12.0,0.,12.0,0.,12.0
1981-08-28 18:31:49.390 ,3,0,0.,12.0,0.,12.0,0.,12.0,0.,12.0
1981-08-28 18:32:01.390 ,4,1,0.,12.0,0.,12.0,0.,12.0,0.,12.0
1981-08-28 18:32:13.390 ,4,1,0.,12.0,0.,12.0,0.,12.0,0.,12.0
1981-08-28 18:32:25.390 ,4,0,0.,12.0,0.,12.0,0.,12.0,0.,12.0
1981-08-28 18:32:37.390 ,4,0,0.,12.0,0.,12.0,0.,12.0,0.,12.0
1981-08-28 18:32:49.390 ,5,1,0.,12.0,0.,12.0,0.,12.0,0.,12.0
1981-08-28 18:33:01.390 ,5,1,0.,12.0,0.,12.0,0.,12.0,0.,12.0
1981-08-28 18:33:13.390 ,5,0,0.,12.0,0.,12.0,0.,12.0,0.,12.0
1981-08-28 18:33:25.390 ,5,0,0.,12.0,0.,12.0,0.,12.0,0.,12.0
1981-08-28 18:33:37.390 ,6,1,0.,12.0,0.,12.0,0.,12.0,0.,12.0
1981-08-28 18:33:49.390 ,6,1,0.,12.0,0.,12.0,0.,12.0,0.,12.0
1981-08-28 18:34:01.390 ,6,0,0.,12.0,0.,12.0,0.,12.0,0.,12.0
1981-08-28 18:34:13.390 ,6,0,0.,12.0,0.,12.0,0.,12.0,0.,12.0
1981-08-28 18:34:25.390 ,7,1,0.,12.0,0.,12.0,0.,12.0,0.,12.0
1981-08-28 18:34:37.390 ,7,1,0.,12.0,0.,12.0,0.,12.0,0.,12.0
1981-08-28 18:34:49.390 ,7,0,0.,12.0,0.,12.0,0.,12.0,0.,12.0
1981-08-28 18:35:01.390 ,7,0,0.,12.0,0.,12.0,0.,12.0,0.,12.0
1981-08-28 18:35:13.390 ,7,1,0.,12.0,0.,12.0,0.,12.0,0.,12.0
1981-08-28 18:35:25.390 ,7,1,0.,12.0,0.,12.0,0.,12.0,0.,12.0
1981-08-28 18:35:37.390 ,6,1,0.,12.0,0.,12.0,0.,12.0,0.,12.0
1981-08-28 18:35:49.390 ,6,1,0.,12.0,0.,12.0,0.,12.0,0.,12.0
1981-08-28 18:36:01.390 ,5,1,0.,12.0,0.,12.0,0.,12.0,0.,12.0
1981-08-28 18:36:13.390 ,5,1,0.,12.0,0.,12.0,0.,12.0,0.,12.0
1981-08-28 18:36:25.390 ,4,1,0.,12.0,0.,12.0,0.,12.0,0.,12.0
1981-08-28 18:36:37.390 ,4,1,0.,12.0,0.,12.0,0.,12.0,0.,12.0
1981-08-28 18:36:49.390 ,3,1,0.,12.0,0.,12.0,0.,12.0,0.,12.0
1981-08-28 18:37:01.390 ,3,1,0.,12.0,0.,12.0,0.,12.0,0.,12.0
1981-08-28 18:37:13.390 ,2,1,0.,12.0,0.,12.0,0.,12.0,0.,12.0
1981-08-28 18:37:25.390 ,2,1,0.,12.0,0.,12.0,0.,12.0,0.,12.0
1981-08-28 18:37:37.390 ,1,1,0.,12.0,0.,12.0,0.,12.0,0.,12.0
1981-08-28 18:37:49.390 ,1,1,0.,12.0,0.,12.0,0.,12.0,0.,12.0
1981-08-28 18:38:01.390 ,0,1,0.,12.0,0.,12.0,0.,12.0,0.,12.0
1981-08-28 18:38:13.390 ,0,1,0.,12.0,0.,12.0,0.,12.0,0.,12.0
1981-08-28 18:38:25.390 ,0,1,0.,12.0,0.,12.0,0.,12.0,0.,12.0
1981-08-28 18:38:37.390 ,0,1,0.,12.0,0.,12.0,0.,12.0,0.,12.0
1981-08-28 18:38:49.390 ,1,1,0.,12.0,0.,12.0,0.,12.0,0.,12.0
1981-08-28 18:39:01.390 ,1,1,0.,12.0,0.,12.0,0.,12.0,0.,12.0
1981-08-28 18:39:13.390 ,2,1,0.,12.0,0.,12.0,0.,12.0,0.,12.0
1981-08-28 18:39:25.390 ,2,1,0.,12.0,0.,12.0,0.,12.0,0.,12.0
1981-08-28 18:39:37.390 ,3,1,0.,12.0,0.,12.0,0.,12.0,0.,12.0
1981-08-28 18:39:49.390 ,3,1,0.,12.0,0.,12.0,0.,12.0,0.,12.0
1981-08-28 18:40:01.380 ,4,1,0.,12.0,0.,12.0,0.,12.0,0.,12.0
1981-08-28 18:40:13.380 ,4,1,0.,12.0,0.,12.0,0.,12.0,0.,12.0
1981-08-28 18:40:25.380 ,5,1,0.,12.0,0.,12.0,0.,12.0,0.,12.0
1981-08-28 18:40:37.380 ,5,1,0.,12.0,0.,12.0,0.,12.0,0.,12.0
1981-08-28 18:40:49.380 ,6,1,0.,12.0,0.,12.0,0.,12.0,0.,12.0
1981-08-28 18:41:01.380 ,6,1,0.,12.0,0.,12.0,0.,12.0,0.,12.0
1981-08-28 18:41:13.380 ,7,1,0.,12.0,0.,12.0,0.,12.0,0.,12.0
1981-08-28 18:41:25.380 ,7,1,0.,12.0,0.,12.0,0.,12.0,0.,12.0
1981-08-28 18:41:37.380 ,7,1,0.,12.0,0.,12.0,0.,12.0,0.,12.0
1981-08-28 18:41:49.380 ,7,1,0.,12.0,0.,12.0,0.,12.0,0.,12.0
1981-08-28 18:42:01.380 ,7,0,0.,12.0,0.,12.0,0.,12.0,0.,12.0
1981-08-28 18:42:13.380 ,7,0,0.,12.0,0.,12.0,0.,12.0,0.,12.0
1981-08-28 18:42:25.380 ,6,1,0.,12.0,0.,12.0,0.,12.0,0.,12.0
1981-08-28 18:42:37.380 ,6,1,0.,12.0,0.,12.0,0.,12.0,0.,12.0
1981-08-28 18:42:49.380 ,6,0,0.,12.0,0.,12.0,0.,12.0,0.,12.0
1981-08-28 18:43:01.380 ,6,0,0.,12.0,0.,12.0,0.,12.0,0.,12.0
1981-08-28 18:43:13.380 ,5,1,0.,12.0,0.,12.0,0.,12.0,0.,12.0
1981-08-28 18:43:25.380 ,5,1,0.,12.0,0.,12.0,0.,12.0,0.,12.0
1981-08-28 18:43:37.380 ,5,0,0.,12.0,0.,12.0,0.,12.0,0.,12.0
1981-08-28 18:43:49.380 ,5,0,0.,12.0,0.,12.0,0.,12.0,0.,12.0
1981-08-28 18:44:01.380 ,4,1,0.,12.0,0.,12.0,0.,12.0,0.,12.0
1981-08-28 18:44:13.380 ,4,1,0.,12.0,0.,12.0,0.,12.0,0.,12.0
1981-08-28 18:44:25.380 ,4,0,0.,12.0,0.,12.0,0.,12.0,0.,12.0
1981-08-28 18:44:37.380 ,4,0,0.,12.0,0.,12.0,0.,12.0,0.,12.0
1981-08-28 18:44:49.380 ,3,1,0.,12.0,0.,12.0,0.,12.0,0.,12.0
1981-08-28 18:45:01.380 ,3,1,0.,12.0,0.,12.0,0.,12.0,0.,12.0
1981-08-28 18:45:13.380 ,3,0,0.,12.0,0.,12.0,0.,12.0,0.,12.0
1981-08-28 18:45:25.380 ,3,0,0.,12.0,0.,12.0,0.,12.0,0.,12.0
1981-08-28 18:45:37.380 ,2,1,0.,12.0,0.,12.0,0.,12.0,0.,12.0
1981-08-28 18:45:49.380 ,2,1,0.,12.0,0.,12.0,0.,12.0,0.,12.0
1981-08-28 18:46:01.380 ,2,0,0.,12.0,0.,12.0,0.,12.0,0.,12.0
1981-08-28 18:46:13.380 ,2,0,0.,12.0,0.,12.0,0.,12.0,0.,12.0
1981-08-28 18:46:25.380 ,1,1,0.,12.0,0.,12.0,0.,12.0,0.,12.0
1981-08-28 18:46:37.380 ,1,1,0.,12.0,0.,12.0,0.,12.0,0.,12.0
1981-08-28 18:46:49.380 ,1,0,0.,12.0,0.,12.0,0.,12.0,0.,12.0
1981-08-28 18:47:01.380 ,1,0,0.,12.0,0.,12.0,0.,12.0,0.,12.0
1981-08-28 18:47:13.380 ,0,1,0.,12.0,0.,12.0,0.,12.0,0.,12.0
1981-08-28 18:47:25.380 ,0,1,0.,12.0,0.,12.0,0.,12.0,0.,12.0
1981-08-28 18:47:37.380 ,0,0,0.,12.0,0.,12.0,0.,12.0,0.,12.0
1981-08-28 18:47:49.380 ,0,0,0.,12.0,0.,12.0,0.,12.0,0.,12.0
1981-08-28 18:48:01.380 ,0,1,0.,12.0,0.,12.0,0.,12.0,0.,12.0
1981-08-28 18:48:13.380 ,0,1,0.,12.0,0.,12.0,0.,12.0,0.,12.0
1981-08-28 18:48:25.380 ,0,0,0.,12.0,0.,12.0,0.,12.0,0.,12.0
1981-08-28 18:48:37.380 ,0,0,0.,12.0,0.,12.0,0.,12.0,0.,12.0
1981-08-28 18:48:49.380 ,1,1,0.,12.0,0.,12.0,0.,12.0,0.,12.0
1981-08-28 18:49:01.380 ,1,1,0.,12.0,0.,12.0,0.,12.0,0.,12.0
1981-08-28 18:49:13.380 ,1,0,0.,12.0,0.,12.0,0.,12.0,0.,12.0
1981-08-28 18:49:25.380 ,1,0,0.,12.0,0.,12.0,0.,12.0,0.,12.0
1981-08-28 18:49:37.380 ,2,1,0.,12.0,0.,12.0,0.,12.0,0.,12.0
1981-08-28 18:49:49.380 ,2,1,0.,12.0,0.,12.0,0.,12.0,0.,12.0
1981-08-28 18:50:01.380 ,2,0,0.,12.0,0.,12.0,0.,12.0,0.,12.0
1981-08-28 18:50:13.380 ,2,0,0.,12.0,0.,12.0,0.,12.0,0.,12.0
1981-08-28 18:50:25.380 ,3,1,0.,12.0,0.,12.0,0.,12.0,0.,12.0
1981-08-28 18:50:37.380 ,3,1,0.,12.0,0.,12.0,0.,12.0,0.,12.0
1981-08-28 18:50:49.380 ,3,0,0.,12.0,0.,12.0,0.,12.0,0.,12.0
1981-08-28 18:51:01.380 ,3,0,0.,12.0,0.,12.0,0.,12.0,0.,12.0
1981-08-28 18:51:13.380 ,4,1,0.,12.0,0.,12.0,0.,12.0,0.,12.0
1981-08-28 18:51:25.380 ,4,1,0.,12.0,0.,12.0,0.,12.0,0.,12.0
1981-08-28 18:51:37.380 ,4,0,0.,12.0,0.,12.0,0.,12.0,0.,12.0
1981-08-28 18:51:49.380 ,4,0,0.,12.0,0.,12.0,0.,12.0,0.,12.0
1981-08-28 18:52:01.380 ,5,1,0.,12.0,0.,12.0,0.,12.0,0.,12.0
1981-08-28 18:52:13.380 ,5,1,0.,12.0,0.,12.0,0.,12.0,0.,12.0
1981-08-28 18:52:25.380 ,5,0,0.,12.0,0.,12.0,0.,12.0,0.,12.0
1981-08-28 18:52:37.380 ,5,0,0.,12.0,0.,12.0,0.,12.0,0.,12.0
1981-08-28 18:52:49.380 ,6,1,0.,12.0,0.,12.0,0.,12.0,0.,12.0
1981-08-28 18:53:01.380 ,6,1,0.,12.0,0.,12.0,0.,12.0,0.,12.0
1981-08-28 18:53:13.380 ,6,0,0.,12.0,0.,12.0,0.,12.0,0.,12.0
1981-08-28 18:53:25.380 ,6,0,0.,12.0,0.,12.0,0.,12.0,0.,12.0
1981-08-28 18:53:37.380 ,7,1,0.,12.0,0.,12.0,0.,12.0,0.,12.0
1981-08-28 18:53:49.380 ,7,1,0.,12.0,0.,12.0,0.,12.0,1.,12.0
1981-08-28 18:54:01.380 ,7,0,0.,12.0,0.,12.0,0.,12.0,0.,12.0
1981-08-28 18:54:13.380 ,7,0,0.,12.0,0.,12.0,0.,12.0,0.,12.0
1981-08-28 18:54:25.380 ,7,1,0.,12.0,0.,12.0,0.,12.0,0.,12.0
1981-08-28 18:54:37.380 ,7,1,0.,12.0,0.,12.0,0.,12.0,0.,12.0
1981-08-28 18:54:49.380 ,6,1,0.,12.0,0.,12.0,0.,12.0,0.,12.0
1981-08-28 18:55:01.380 ,6,1,0.,12.0,0.,12.0,0.,12.0,0.,12.0
1981-08-28 18:55:13.380 ,5,1,0.,12.0,0.,12.0,0.,12.0,0.,12.0
1981-08-28 18:55:25.380 ,5,1,0.,12.0,0.,12.0,0.,12.0,0.,12.0
1981-08-28 18:55:37.380 ,4,1,0.,12.0,0.,12.0,0.,12.0,0.,12.0
1981-08-28 18:55:49.380 ,4,1,0.,12.0,0.,12.0,0.,12.0,0.,12.0
1981-08-28 18:56:01.380 ,3,1,0.,12.0,0.,12.0,0.,12.0,0.,12.0
1981-08-28 18:56:13.380 ,3,1,0.,12.0,0.,12.0,0.,12.0,0.,12.0
1981-08-28 18:56:25.380 ,2,1,0.,12.0,0.,12.0,0.,12.0,0.,12.0
1981-08-28 18:56:37.380 ,2,1,0.,12.0,0.,12.0,0.,12.0,0.,12.0
1981-08-28 18:56:49.380 ,1,1,0.,12.0,0.,12.0,0.,12.0,0.,12.0
1981-08-28 18:57:01.380 ,1,1,0.,12.0,0.,12.0,0.,12.0,0.,12.0
1981-08-28 18:57:13.380 ,0,1,0.,12.0,0.,12.0,0.,12.0,1.,12.0
1981-08-28 18:57:25.380 ,0,1,0.,12.0,0.,12.0,0.,12.0,0.,12.0
1981-08-28 18:57:37.380 ,0,1,0.,12.0,0.,12.0,0.,12.0,0.,12.0
1981-08-28 18:57:49.380 ,0,1,0.,12.0,0.,12.0,0.,12.0,0.,12.0
1981-08-28 18:58:01.380 ,1,1,0.,12.0,0.,12.0,0.,12.0,0.,12.0
1981-08-28 18:58:13.380 ,1,1,0.,12.0,0.,12.0,0.,12.0,0.,12.0
1981-08-28 18:58:25.380 ,2,1,0.,12.0,0.,12.0,0.,12.0,0.,12.0
1981-08-28 18:58:37.380 ,2,1,0.,12.0,0.,12.0,0.,12.0,0.,12.0
1981-08-28 18:58:49.380 ,3,1,0.,12.0,0.,12.0,0.,12.0,0.,12.0
1981-08-28 18:59:01.380 ,3,1,0.,12.0,0.,12.0,0.,12.0,0.,12.0
1981-08-28 18:59:13.380 ,4,1,0.,12.0,0.,12.0,0.,12.0,0.,12.0
1981-08-28 18:59:25.380 ,4,1,0.,12.0,0.,12.0,0.,12.0,0.,12.0
1981-08-28 18:59:37.380 ,5,1,0.,12.0,0.,12.0,0.,12.0,0.,12.0
1981-08-28 18:59:49.380 ,5,1,0.,12.0,0.,12.0,0.,12.0,0.,12.0
1981-08-28 19:00:01.380 ,6,1,0.,12.0,0.,12.0,0.,12.0,0.,12.0
1981-08-28 19:00:13.380 ,6,1,0.,12.0,0.,12.0,0.,12.0,0.,12.0
1981-08-28 19:00:25.380 ,7,1,0.,12.0,0.,12.0,0.,12.0,0.,12.0
1981-08-28 19:00:37.380 ,7,1,0.,12.0,0.,12.0,0.,12.0,0.,12.0
1981-08-28 19:00:49.380 ,7,1,0.,12.0,0.,12.0,0.,12.0,0.,12.0
1981-08-28 19:01:01.380 ,7,1,0.,12.0,0.,12.0,0.,12.0,0.,12.0
1981-08-28 19:01:13.380 ,7,0,0.,12.0,0.,12.0,0.,12.0,0.,12.0
1981-08-28 19:01:25.380 ,7,0,0.,12.0,0.,12.0,0.,12.0,0.,12.0
1981-08-28 19:01:37.380 ,6,1,0.,12.0,0.,12.0,0.,12.0,0.,12.0
1981-08-28 19:01:49.380 ,6,1,0.,12.0,0.,12.0,0.,12.0,0.,12.0
1981-08-28 19:02:01.380 ,6,0,0.,12.0,0.,12.0,0.,12.0,0.,12.0
1981-08-28 19:02:13.380 ,6,0,0.,12.0,0.,12.0,0.,12.0,0.,12.0
1981-08-28 19:02:25.380 ,5,1,0.,12.0,0.,12.0,0.,12.0,0.,12.0
1981-08-28 19:02:37.380 ,5,1,0.,12.0,0.,12.0,0.,12.0,0.,12.0
1981-08-28 19:02:49.380 ,5,0,0.,12.0,0.,12.0,0.,12.0,0.,12.0
1981-08-28 19:03:01.380 ,5,0,0.,12.0,0.,12.0,0.,12.0,0.,12.0
1981-08-28 19:03:13.380 ,4,1,0.,12.0,0.,12.0,0.,12.0,0.,12.0
1981-08-28 19:03:25.380 ,4,1,0.,12.0,0.,12.0,0.,12.0,0.,12.0
1981-08-28 19:03:37.380 ,4,0,0.,12.0,0.,12.0,0.,12.0,0.,12.0
1981-08-28 19:03:49.380 ,4,0,0.,12.0,0.,12.0,0.,12.0,0.,12.0
1981-08-28 19:04:01.380 ,3,1,0.,12.0,0.,12.0,0.,12.0,0.,12.0
1981-08-28 19:04:13.380 ,3,1,0.,12.0,0.,12.0,0.,12.0,0.,12.0
1981-08-28 19:04:25.380 ,3,0,0.,12.0,0.,12.0,0.,12.0,0.,12.0
1981-08-28 19:04:37.380 ,3,0,0.,12.0,0.,12.0,0.,12.0,0.,12.0
1981-08-28 19:04:49.380 ,2,1,0.,12.0,0.,12.0,0.,12.0,0.,12.0
1981-08-28 19:05:01.380 ,2,1,0.,12.0,0.,12.0,0.,12.0,0.,12.0
1981-08-28 19:05:13.380 ,2,0,0.,12.0,0.,12.0,0.,12.0,0.,12.0
1981-08-28 19:05:25.380 ,2,0,0.,12.0,0.,12.0,0.,12.0,0.,12.0
1981-08-28 19:05:37.380 ,1,1,0.,12.0,0.,12.0,0.,12.0,0.,12.0
1981-08-28 19:05:49.380 ,1,1,0.,12.0,0.,12.0,0.,12.0,0.,12.0
1981-08-28 19:06:01.380 ,1,0,0.,12.0,0.,12.0,0.,12.0,0.,12.0
1981-08-28 19:06:13.380 ,1,0,0.,12.0,0.,12.0,0.,12.0,0.,12.0
1981-08-28 19:06:25.380 ,0,1,0.,12.0,0.,12.0,0.,12.0,0.,12.0
1981-08-28 19:06:37.380 ,0,1,0.,12.0,0.,12.0,0.,12.0,0.,12.0
1981-08-28 19:06:49.380 ,0,0,0.,12.0,0.,12.0,0.,12.0,0.,12.0
1981-08-28 19:07:01.380 ,0,0,0.,12.0,0.,12.0,0.,12.0,0.,12.0
1981-08-28 19:07:13.380 ,0,1,0.,12.0,0.,12.0,0.,12.0,0.,12.0
1981-08-28 19:07:25.380 ,0,1,0.,12.0,0.,12.0,0.,12.0,0.,12.0
1981-08-28 19:07:37.380 ,0,0,0.,12.0,0.,12.0,0.,12.0,1.,12.0
1981-08-28 19:07:49.380 ,0,0,0.,12.0,0.,12.0,0.,12.0,0.,12.0
1981-08-28 19:08:01.380 ,1,1,0.,12.0,0.,12.0,0.,12.0,0.,12.0
1981-08-28 19:08:13.380 ,1,1,0.,12.0,0.,12.0,0.,12.0,0.,12.0
1981-08-28 19:08:25.380 ,1,0,0.,12.0,0.,12.0,0.,12.0,0.,12.0
1981-08-28 19:08:37.380 ,1,0,0.,12.0,0.,12.0,0.,12.0,0.,12.0
1981-08-28 19:08:49.380 ,2,1,0.,12.0,0.,12.0,0.,12.0,0.,12.0
1981-08-28 19:09:01.380 ,2,1,0.,12.0,0.,12.0,0.,12.0,0.,12.0
1981-08-28 19:09:13.380 ,2,0,0.,12.0,0.,12.0,0.,12.0,0.,12.0
1981-08-28 19:09:25.380 ,2,0,0.,12.0,0.,12.0,0.,12.0,0.,12.0
1981-08-28 19:09:37.380 ,3,1,0.,12.0,0.,12.0,0.,12.0,0.,12.0
1981-08-28 19:09:49.380 ,3,1,0.,12.0,0.,12.0,0.,12.0,0.,12.0
1981-08-28 19:10:01.380 ,3,0,0.,12.0,0.,12.0,0.,12.0,0.,12.0
1981-08-28 19:10:13.380 ,3,0,0.,12.0,0.,12.0,0.,12.0,0.,12.0
1981-08-28 19:10:25.380 ,4,1,0.,12.0,0.,12.0,0.,12.0,0.,12.0
1981-08-28 19:10:37.380 ,4,1,0.,12.0,0.,12.0,0.,12.0,0.,12.0
1981-08-28 19:10:49.380 ,4,0,0.,12.0,0.,12.0,0.,12.0,0.,12.0
1981-08-28 19:11:01.380 ,4,0,0.,12.0,0.,12.0,0.,12.0,0.,12.0
1981-08-28 19:11:13.380 ,5,1,0.,12.0,0.,12.0,0.,12.0,0.,12.0
1981-08-28 19:11:25.380 ,5,1,0.,12.0,0.,12.0,0.,12.0,0.,12.0
1981-08-28 19:11:37.380 ,5,0,0.,12.0,0.,12.0,0.,12.0,0.,12.0
1981-08-28 19:11:49.380 ,5,0,0.,12.0,0.,12.0,0.,12.0,0.,12.0
1981-08-28 19:12:01.380 ,6,1,0.,12.0,0.,12.0,0.,12.0,0.,12.0
1981-08-28 19:12:13.380 ,6,1,0.,12.0,0.,12.0,0.,12.0,0.,12.0
1981-08-28 19:12:25.380 ,6,0,0.,12.0,0.,12.0,0.,12.0,0.,12.0
1981-08-28 19:12:37.380 ,6,0,0.,12.0,0.,12.0,0.,12.0,0.,12.0
1981-08-28 19:12:49.380 ,7,1,0.,12.0,0.,12.0,0.,12.0,0.,12.0
1981-08-28 19:13:01.380 ,7,1,0.,12.0,0.,12.0,0.,12.0,0.,12.0
1981-08-28 19:13:13.380 ,7,0,0.,12.0,0.,12.0,0.,12.0,0.,12.0
1981-08-28 19:13:25.380 ,7,0,0.,12.0,0.,12.0,0.,12.0,0.,12.0
1981-08-28 19:13:37.380 ,7,1,0.,12.0,0.,12.0,0.,12.0,0.,12.0
1981-08-28 19:13:49.380 ,7,1,0.,12.0,0.,12.0,0.,12.0,0.,12.0
1981-08-28 19:14:01.380 ,6,1,0.,12.0,0.,12.0,0.,12.0,0.,12.0
1981-08-28 19:14:13.380 ,6,1,0.,12.0,0.,12.0,0.,12.0,0.,12.0
1981-08-28 19:14:25.380 ,5,1,0.,12.0,0.,12.0,0.,12.0,0.,12.0
1981-08-28 19:14:37.380 ,5,1,0.,12.0,0.,12.0,0.,12.0,0.,12.0
1981-08-28 19:14:49.380 ,4,1,0.,12.0,0.,12.0,0.,12.0,0.,12.0
1981-08-28 19:15:01.380 ,4,1,0.,12.0,0.,12.0,0.,12.0,0.,12.0
1981-08-28 19:15:13.380 ,3,1,0.,12.0,0.,12.0,0.,12.0,0.,12.0
1981-08-28 19:15:25.380 ,3,1,0.,12.0,0.,12.0,0.,12.0,0.,12.0
1981-08-28 19:15:37.380 ,2,1,0.,12.0,0.,12.0,0.,12.0,0.,12.0
1981-08-28 19:15:49.380 ,2,1,0.,12.0,0.,12.0,0.,12.0,0.,12.0
1981-08-28 19:16:01.380 ,1,1,0.,12.0,0.,12.0,0.,12.0,0.,12.0
1981-08-28 19:16:13.380 ,1,1,0.,12.0,0.,12.0,0.,12.0,0.,12.0
1981-08-28 19:16:25.380 ,0,1,0.,12.0,0.,12.0,0.,12.0,0.,12.0
1981-08-28 19:16:37.380 ,0,1,0.,12.0,0.,12.0,0.,12.0,0.,12.0
1981-08-28 19:16:49.380 ,0,1,0.,12.0,0.,12.0,0.,12.0,0.,12.0
1981-08-28 19:17:01.380 ,0,1,0.,12.0,0.,12.0,0.,12.0,0.,12.0
1981-08-28 19:17:13.380 ,1,1,0.,12.0,0.,12.0,0.,12.0,0.,12.0
1981-08-28 19:17:25.380 ,1,1,0.,12.0,0.,12.0,0.,12.0,0.,12.0